AB4KN Weather Reports


Display with metric or nautical units.
time (UTC)temp
F
wind
direction
speed
MPH
gust
MPH
rain 1hr
in
rain 24hr
in
rain mn
in
humidity
%
barometer
mb
20260901143124 84 281 0.0 0.0 0.00 0.00 0.00 72 1026.2
20260901142620 84 284 0.0 0.0 0.00 0.00 0.00 71 1026.3
20260901142119 84 284 0.0 0.0 0.00 0.00 0.00 72 1026.2
20260901141614 83 282 0.0 0.0 0.00 0.00 0.00 73 1026.3
20260901141108 83 282 0.0 0.0 0.00 0.00 0.00 75 1026.3
20260901140607 83 274 0.0 0.0 0.00 0.00 0.00 74 1026.1
20260901140106 83 274 0.0 0.0 0.00 0.00 0.00 75 1026.3
20260901135601 82 263 1.0 2.0 0.00 0.00 0.00 77 1026.1
20260901135056 81 274 0.0 0.0 0.00 0.00 0.00 78 1026.2
20260901134552 81 278 0.0 0.0 0.00 0.00 0.00 79 1026.1
20260901134053 81 278 0.0 0.0 0.00 0.00 0.00 79 1026.0
20260901133551 80 222 0.0 0.0 0.00 0.00 0.00 79 1026.0
20260901133050 79 281 0.0 0.0 0.00 0.00 0.00 81 1026.2
20260901132545 79 281 0.0 0.0 0.00 0.00 0.00 82 1026.1
20260901132045 78 281 0.0 0.0 0.00 0.00 0.00 82 1026.1
20260901131539 78 281 0.0 0.0 0.00 0.00 0.00 83 1026.2
20260901131034 77 281 0.0 0.0 0.00 0.00 0.00 83 1026.0
20260901130534 77 281 0.0 0.0 0.00 0.00 0.00 84 1026.0
20260901130033 76 281 0.0 0.0 0.00 0.00 0.00 84 1026.1
20260901125531 76 281 0.0 0.0 0.00 0.00 0.00 85 1025.9
20260901125027 75 281 0.0 0.0 0.00 0.00 0.00 85 1026.0
20260901124521 75 281 0.0 0.0 0.00 0.00 0.00 86 1025.8
20260901124021 75 281 0.0 0.0 0.00 0.00 0.00 86 1026.0
20260901123516 74 280 0.0 0.0 0.00 0.00 0.00 86 1025.9
20260901123016 74 280 0.0 0.0 0.00 0.00 0.00 86 1025.8
20260901122515 74 281 0.0 0.0 0.00 0.00 0.00 87 1025.9
20260901122014 74 281 0.0 0.0 0.00 0.00 0.00 87 1025.9
20260901121509 73 280 0.0 0.0 0.00 0.00 0.00 87 1025.9
20260901121004 73 280 0.0 0.0 0.00 0.00 0.00 87 1025.9
20260901120504 73 280 0.0 0.0 0.00 0.00 0.00 87 1025.8
20260901115959 73 280 0.0 0.0 0.00 0.00 0.00 87 1025.6
20260901115454 73 280 0.0 0.0 0.00 0.00 0.00 87 1025.5
20260901114951 73 280 0.0 0.0 0.00 0.00 0.00 87 1025.4
20260901114447 73 280 0.0 0.0 0.00 0.00 0.00 87 1025.6
20260901113945 73 280 0.0 0.0 0.00 0.00 0.00 87 1025.2
20260901113444 73 280 0.0 0.0 0.00 0.00 0.00 87 1025.4
20260901112940 73 280 0.0 0.0 0.00 0.00 0.00 86 1025.4
20260901112435 72 280 0.0 0.0 0.00 0.00 0.00 87 1025.2
20260901111930 72 280 0.0 0.0 0.00 0.00 0.00 86 1025.1
20260901111428 72 280 0.0 0.0 0.00 0.00 0.00 86 1024.9
20260901110927 72 280 0.0 0.0 0.00 0.00 0.00 87 1025.1
20260901110422 72 280 0.0 0.0 0.00 0.00 0.00 86 1024.9
20260901105919 72 280 0.0 0.0 0.00 0.00 0.00 86 1024.8
20260901105414 72 280 0.0 0.0 0.00 0.00 0.00 86 1024.8
20260901104910 73 280 0.0 0.0 0.00 0.00 0.00 86 1024.9
20260901104405 73 280 0.0 0.0 0.00 0.00 0.00 86 1024.9
20260901103901 73 280 0.0 0.0 0.00 0.00 0.00 86 1024.9
20260901103400 73 280 0.0 0.0 0.00 0.00 0.00 86 1024.9
20260901102855 73 280 0.0 0.0 0.00 0.00 0.00 86 1024.7
20260901102349 73 280 0.0 0.0 0.00 0.00 0.00 86 1024.9
20260901101845 73 280 0.0 0.0 0.00 0.00 0.00 86 1024.6
20260901101345 73 280 0.0 0.0 0.00 0.00 0.00 85 1024.9
20260901100844 73 280 0.0 0.0 0.00 0.00 0.00 86 1024.8
20260901100339 73 280 0.0 0.0 0.00 0.00 0.00 86 1024.6
20260901095839 73 280 0.0 0.0 0.00 0.00 0.00 85 1024.7
20260901095336 73 280 0.0 0.0 0.00 0.00 0.00 86 1024.6
20260901094830 73 280 0.0 0.0 0.00 0.00 0.00 85 1024.6
20260901094325 73 280 0.0 0.0 0.00 0.00 0.00 85 1024.5
20260901093820 73 280 0.0 0.0 0.00 0.00 0.00 85 1024.5
20260901093319 73 280 0.0 0.0 0.00 0.00 0.00 85 1024.5
20260901092816 74 280 0.0 0.0 0.00 0.00 0.00 85 1024.6
20260901092311 74 280 0.0 0.0 0.00 0.00 0.00 84 1024.6
20260901091807 74 280 0.0 0.0 0.00 0.00 0.00 84 1024.3
20260901091306 74 280 0.0 0.0 0.00 0.00 0.00 84 1024.4
20260901090801 74 280 0.0 0.0 0.00 0.00 0.00 84 1024.3
20260901090256 74 280 0.0 0.0 0.00 0.00 0.00 83 1024.3
20260901085753 74 280 0.0 0.0 0.00 0.00 0.00 83 1024.7
20260901085247 74 280 0.0 0.0 0.00 0.00 0.00 83 1024.5
20260901084744 74 280 0.0 0.0 0.00 0.00 0.00 83 1024.5
20260901084240 74 280 0.0 0.0 0.00 0.00 0.00 83 1024.2
20260901083740 74 280 0.0 0.0 0.00 0.00 0.00 83 1024.4
20260901083239 75 280 0.0 0.0 0.00 0.00 0.00 84 1024.3
20260901082738 75 280 0.0 0.0 0.00 0.00 0.00 83 1024.4
20260901082233 75 280 0.0 0.0 0.00 0.00 0.00 83 1024.4
20260901081729 75 280 0.0 0.0 0.00 0.00 0.00 82 1024.5
20260901081228 75 280 0.0 0.0 0.00 0.00 0.00 82 1024.3
20260901080724 75 280 0.0 0.0 0.00 0.00 0.00 82 1024.5
20260901080223 75 280 0.0 0.0 0.00 0.00 0.00 82 1024.1
20260901075722 75 280 0.0 0.0 0.00 0.00 0.00 82 1024.1
20260901075218 75 280 0.0 0.0 0.00 0.00 0.00 82 1024.4
20260901074712 75 280 0.0 0.0 0.00 0.00 0.00 82 1024.2
20260901074208 75 280 0.0 0.0 0.00 0.00 0.00 83 1024.0
20260901073704 75 280 0.0 0.0 0.00 0.00 0.00 83 1024.0
20260901073159 75 280 0.0 0.0 0.00 0.00 0.00 82 1024.2
20260901072654 75 280 0.0 0.0 0.00 0.00 0.00 83 1024.1
20260901072148 75 280 0.0 0.0 0.00 0.00 0.00 83 1024.1
20260901071643 75 280 0.0 0.0 0.00 0.00 0.00 83 1024.0
20260901071143 75 280 0.0 0.0 0.00 0.00 0.00 82 1023.9
20260901070637 75 280 0.0 0.0 0.00 0.00 0.00 82 1024.0
20260901070133 75 280 0.0 0.0 0.00 0.00 0.00 82 1024.2
20260901065631 75 280 0.0 0.0 0.00 0.00 0.00 82 1024.2
20260901065126 75 280 0.0 0.0 0.00 0.00 0.00 82 1024.3
20260901064623 75 280 0.0 0.0 0.00 0.00 0.00 82 1024.2
20260901064119 75 280 0.0 0.0 0.00 0.00 0.00 82 1024.3
20260901063616 75 280 0.0 0.0 0.00 0.00 0.00 82 1024.4
20260901063112 75 280 0.0 0.0 0.00 0.00 0.00 82 1024.5
20260901062608 75 280 0.0 0.0 0.00 0.00 0.00 82 1024.6
20260901062103 75 280 0.0 0.0 0.00 0.00 0.00 82 1024.4
20260901061600 75 280 0.0 0.0 0.00 0.00 0.00 82 1024.6
20260901061054 75 280 0.0 0.0 0.00 0.00 0.00 82 1024.6
20260901060549 75 280 0.0 0.0 0.00 0.00 0.00 82 1024.6
20260901060044 76 280 0.0 0.0 0.00 0.00 0.00 82 1024.6
20260901055539 76 280 0.0 0.0 0.00 0.00 0.00 81 1024.5
20260901055036 76 280 0.0 0.0 0.00 0.00 0.00 81 1024.6
20260901054533 76 280 0.0 0.0 0.00 0.00 0.00 81 1024.5
20260901054029 76 280 0.0 0.0 0.00 0.00 0.00 81 1024.7
20260901053524 76 280 0.0 0.0 0.00 0.00 0.00 81 1024.7
20260901053021 76 280 0.0 0.0 0.00 0.00 0.00 81 1025.0
20260901052520 76 280 0.0 0.0 0.00 0.00 0.00 81 1024.7
20260901052020 76 280 0.0 0.0 0.00 0.00 0.00 81 1024.8
20260901051515 77 280 0.0 0.0 0.00 0.00 0.00 80 1024.8
20260901051014 77 280 0.0 0.0 0.00 0.00 0.00 80 1024.9
20260901050509 77 280 0.0 0.0 0.00 0.00 0.00 80 1024.8
20260901050004 77 280 0.0 0.0 0.00 0.00 0.00 80 1024.9
20260901045459 77 280 0.0 0.0 0.00 0.00 0.00 80 1024.7
20260901044954 77 280 0.0 0.0 0.00 0.00 0.00 80 1024.8
20260901044450 77 280 0.0 0.0 0.00 0.00 0.00 79 1024.9
20260901043946 77 280 0.0 0.0 0.00 0.00 0.00 79 1024.6
20260901043442 77 280 0.0 0.0 0.00 0.00 0.00 79 1024.7
20260901042942 77 280 0.0 0.0 0.00 0.00 0.00 78 1024.6
20260901042441 77 280 0.0 0.0 0.00 0.00 0.00 78 1024.6
20260901041937 78 280 0.0 0.0 0.00 0.00 0.00 77 1025.1
20260901041432 78 280 0.0 0.0 0.00 0.00 0.00 76 1024.6
20260901040931 78 280 0.0 0.0 0.00 0.00 0.00 76 1024.8
20260901040427 78 280 0.0 0.0 0.00 0.00 0.00 78 1024.8
20260901035925 78 280 0.0 0.0 0.00 0.00 0.00 76 1024.6
20260901035424 78 280 0.0 0.0 0.00 0.00 0.00 75 1024.6
20260901034923 78 280 0.0 0.0 0.00 0.00 0.00 75 1024.9
20260901034418 78 280 0.0 0.0 0.00 0.00 0.00 75 1024.7
20260901033913 78 280 0.0 0.0 0.00 0.00 0.00 75 1024.7
20260901033412 78 280 0.0 0.0 0.00 0.00 0.00 75 1024.6
20260901032910 78 280 0.0 0.0 0.00 0.00 0.00 75 1024.8
20260901032410 78 280 0.0 0.0 0.00 0.00 0.00 75 1024.8
20260901031905 79 280 0.0 0.0 0.00 0.00 0.00 75 1024.9
20260901031401 79 280 0.0 0.0 0.00 0.00 0.00 75 1024.9
20260901030900 79 280 0.0 0.0 0.00 0.00 0.00 74 1025.0
20260901030356 79 280 0.0 0.0 0.00 0.00 0.00 73 1024.9
20260901025855 79 280 0.0 0.0 0.00 0.00 0.00 73 1024.7
20260901025350 79 280 0.0 0.0 0.00 0.00 0.00 74 1024.8
20260901024845 79 280 0.0 0.0 0.00 0.00 0.00 75 1024.8
20260901024344 80 280 0.0 0.0 0.00 0.00 0.00 74 1024.6
20260901023842 80 280 0.0 0.0 0.00 0.00 0.00 73 1024.6
20260901023338 80 280 0.0 0.0 0.00 0.00 0.00 72 1024.9
20260901022833 80 280 0.0 0.0 0.00 0.00 0.00 72 1024.5
20260901022329 81 280 0.0 0.0 0.00 0.00 0.00 71 1024.7
20260901021824 81 280 0.0 0.0 0.00 0.00 0.00 69 1024.6
20260901021320 81 280 0.0 0.0 0.00 0.00 0.00 69 1024.6
20260901020814 81 280 0.0 0.0 0.00 0.00 0.00 68 1024.6
20260901020309 81 280 0.0 0.0 0.00 0.00 0.00 68 1024.5
20260901015804 81 280 0.0 0.0 0.00 0.00 0.00 69 1024.7
20260901015300 81 280 0.0 0.0 0.00 0.00 0.00 69 1024.5
20260901014759 81 280 0.0 0.0 0.00 0.00 0.00 68 1024.5
20260901014255 82 280 0.0 0.0 0.00 0.00 0.00 68 1024.4
20260901013751 82 280 0.0 0.0 0.00 0.00 0.00 67 1024.4
20260901013246 82 280 0.0 0.0 0.00 0.00 0.00 67 1024.4
20260901012741 82 280 0.0 0.0 0.00 0.00 0.00 66 1024.2
20260901012241 82 280 0.0 0.0 0.00 0.00 0.00 66 1024.2
20260901011737 82 280 0.0 0.0 0.00 0.00 0.00 65 1024.3
20260901011232 82 280 0.0 0.0 0.00 0.00 0.00 65 1024.1
20260901010726 83 280 0.0 0.0 0.00 0.00 0.00 64 1023.9
20260901010221 83 280 0.0 0.0 0.00 0.00 0.00 63 1023.9
20260901005720 83 280 0.0 0.0 0.00 0.00 0.00 64 1023.7
20260901005215 83 280 0.0 0.0 0.00 0.00 0.00 63 1023.5
20260901004714 83 280 0.0 0.0 0.00 0.00 0.00 63 1023.7
20260901004204 83 280 0.0 0.0 0.00 0.00 0.00 63 1023.7
20260901003703 84 280 0.0 0.0 0.00 0.00 0.00 63 1023.5
20260901003158 84 280 0.0 0.0 0.00 0.00 0.00 62 1023.4
20260901002657 84 280 0.0 0.0 0.00 0.00 0.00 62 1023.5
20260901002152 85 280 0.0 0.0 0.00 0.00 0.00 60 1023.5
20260901001648 85 280 0.0 0.0 0.00 0.00 0.00 60 1023.6
20260901001143 86 280 0.0 0.0 0.00 0.00 0.00 59 1023.5
20260901000638 86 280 0.0 0.0 0.00 0.00 0.00 58 1023.4
20260901000133 86 280 0.0 0.0 0.00 0.00 0.00 57 1023.3
20260831235627 87 280 0.0 0.0 0.00 0.00 0.00 57 1023.6
20260831235122 87 281 0.0 0.0 0.00 0.00 0.00 57 1023.5
20260831234621 87 281 0.0 0.0 0.00 0.00 0.00 55 1023.6
20260831234117 87 281 0.0 0.0 0.00 0.00 0.00 55 1023.5
20260831233612 88 282 0.0 0.0 0.00 0.00 0.00 54 1023.4
20260831233108 88 282 0.0 0.0 0.00 0.00 0.00 53 1023.3
20260831232603 88 282 0.0 0.0 0.00 0.00 0.00 53 1023.6
20260831232059 89 282 0.0 0.0 0.00 0.00 0.00 53 1023.6
20260831231555 89 282 0.0 0.0 0.00 0.00 0.00 52 1023.5
20260831231050 89 282 0.0 0.0 0.00 0.00 0.00 52 1023.6
20260831230545 89 282 0.0 0.0 0.00 0.00 0.00 52 1023.3
20260831230040 90 282 0.0 0.0 0.00 0.00 0.00 51 1023.8
20260831225536 90 282 0.0 0.0 0.00 0.00 0.00 50 1023.5
20260831225035 89 233 0.0 0.0 0.00 0.00 0.00 50 1023.6
20260831224530 90 279 0.0 0.0 0.00 0.00 0.00 51 1023.6
20260831224026 90 279 0.0 0.0 0.00 0.00 0.00 50 1023.6
20260831223521 90 276 0.0 0.0 0.00 0.00 0.00 50 1023.5
20260831223018 90 301 0.0 0.0 0.00 0.00 0.00 50 1023.6
20260831222514 90 301 0.0 0.0 0.00 0.00 0.00 49 1023.5
20260831222013 91 298 0.0 0.0 0.00 0.00 0.00 49 1023.6
20260831221509 91 253 0.0 0.0 0.00 0.00 0.00 48 1023.7
20260831221004 91 295 0.0 0.0 0.00 0.00 0.00 47 1023.6
20260831220459 91 253 0.0 0.0 0.00 0.00 0.00 48 1023.7
20260831215955 91 298 0.0 0.0 0.00 0.00 0.00 47 1023.8
20260831215450 91 298 0.0 0.0 0.00 0.00 0.00 47 1023.9
20260831214946 92 310 0.0 0.0 0.00 0.00 0.00 45 1023.8
20260831214443 91 200 0.0 0.0 0.00 0.00 0.00 47 1024.0
20260831213939 92 281 0.0 0.0 0.00 0.00 0.00 46 1023.8
20260831213436 91 315 0.0 0.0 0.00 0.00 0.00 45 1023.7
20260831212935 91 303 0.0 0.0 0.00 0.00 0.00 47 1023.9
20260831212431 92 304 0.0 0.0 0.00 0.00 0.00 47 1023.8
20260831211931 92 285 0.0 0.0 0.00 0.00 0.00 45 1023.9
20260831211426 92 285 0.0 0.0 0.00 0.00 0.00 46 1023.8
20260831210926 93 255 0.0 0.0 0.00 0.00 0.00 44 1024.0
20260831210421 92 149 0.0 0.0 0.00 0.00 0.00 43 1024.0
20260831205917 91 289 0.0 0.0 0.00 0.00 0.00 47 1023.9
20260831205412 90 288 0.0 0.0 0.00 0.00 0.00 48 1024.0
20260831204907 91 289 0.0 0.0 0.00 0.00 0.00 49 1024.1
20260831204406 92 289 0.0 0.0 0.00 0.00 0.00 47 1024.3
20260831203906 93 268 0.0 0.0 0.00 0.00 0.00 42 1024.0
20260831203401 92 197 1.0 2.0 0.00 0.00 0.00 43 1023.9
20260831202858 92 278 0.0 0.0 0.00 0.00 0.00 46 1024.4
20260831202354 93 267 0.0 0.0 0.00 0.00 0.00 46 1024.3
20260831201854 93 152 3.0 7.0 0.00 0.00 0.00 47 1024.2
20260831201352 92 290 0.0 0.0 0.00 0.00 0.00 48 1024.3
20260831200849 92 212 0.0 0.0 0.00 0.00 0.00 46 1024.4
20260831200343 91 272 0.0 0.0 0.00 0.00 0.00 50 1024.3
20260831195838 91 281 0.0 0.0 0.00 0.00 0.00 52 1024.5
20260831195334 92 292 0.0 0.0 0.00 0.00 0.00 50 1024.5
20260831194830 92 294 0.0 0.0 0.00 0.00 0.00 48 1024.6
20260831194325 91 237 0.0 0.0 0.00 0.00 0.00 48 1024.4
20260831193824 90 252 0.0 0.0 0.00 0.00 0.00 48 1024.6
20260831193319 89 284 0.0 0.0 0.00 0.00 0.00 54 1024.6
20260831192814 90 294 0.0 0.0 0.00 0.00 0.00 54 1024.8
20260831192309 91 294 0.0 0.0 0.00 0.00 0.00 53 1024.7
20260831191805 91 294 0.0 0.0 0.00 0.00 0.00 52 1025.0
20260831191301 91 300 0.0 0.0 0.00 0.00 0.00 51 1025.1
20260831190756 92 300 0.0 0.0 0.00 0.00 0.00 52 1024.9
20260831190250 91 308 0.0 0.0 0.00 0.00 0.00 51 1025.1
20260831185745 91 301 0.0 0.0 0.00 0.00 0.00 52 1025.1
20260831185241 91 293 1.0 2.0 0.00 0.00 0.00 51 1025.2
20260831184739 90 241 0.0 0.0 0.00 0.00 0.00 53 1025.3
20260831184236 90 131 0.0 0.0 0.00 0.00 0.00 53 1025.4
20260831183735 90 179 0.0 0.0 0.00 0.00 0.00 55 1025.4
20260831183230 89 256 0.0 0.0 0.00 0.00 0.00 57 1025.4
20260831182729 88 264 0.0 0.0 0.00 0.00 0.00 60 1025.3
20260831182224 89 264 0.0 0.0 0.00 0.00 0.00 57 1025.4
20260831181724 90 291 0.0 0.0 0.00 0.00 0.00 56 1025.6
20260831181220 89 300 0.0 0.0 0.00 0.00 0.00 55 1025.7
20260831180715 88 294 0.0 0.0 0.00 0.00 0.00 60 1025.7
20260831180209 89 291 0.0 0.0 0.00 0.00 0.00 61 1025.8
20260831175709 90 290 0.0 0.0 0.00 0.00 0.00 58 1025.7
20260831175206 90 290 0.0 0.0 0.00 0.00 0.00 60 1026.0
20260831174706 90 279 0.0 0.0 0.00 0.00 0.00 57 1026.2
20260831174201 90 267 0.0 0.0 0.00 0.00 0.00 58 1026.0
20260831173700 89 298 0.0 0.0 0.00 0.00 0.00 59 1025.9
20260831173155 91 252 0.0 0.0 0.00 0.00 0.00 54 1026.1
20260831172655 91 252 0.0 0.0 0.00 0.00 0.00 54 1026.1
20260831172151 90 285 0.0 0.0 0.00 0.00 0.00 59 1026.0
20260831171645 89 190 0.0 0.0 0.00 0.00 0.00 58 1026.5
20260831171143 89 268 0.0 0.0 0.00 0.00 0.00 61 1026.2
20260831170639 89 255 0.0 0.0 0.00 0.00 0.00 61 1026.1
20260831170135 89 251 0.0 0.0 0.00 0.00 0.00 59 1026.2
20260831165631 88 298 0.0 0.0 0.00 0.00 0.00 63 1026.5
20260831165127 87 298 0.0 0.0 0.00 0.00 0.00 64 1026.6
20260831164623 88 298 0.0 0.0 0.00 0.00 0.00 64 1026.5
20260831164119 88 298 0.0 0.0 0.00 0.00 0.00 63 1026.5
20260831163614 87 299 0.0 0.0 0.00 0.00 0.00 65 1026.3
20260831163109 88 299 0.0 0.0 0.00 0.00 0.00 65 1026.3
20260831162608 86 85 0.0 0.0 0.00 0.00 0.00 66 1026.7
20260831162106 86 295 0.0 0.0 0.00 0.00 0.00 69 1026.6
20260831161602 86 295 0.0 0.0 0.00 0.00 0.00 69 1026.7
20260831161059 87 295 0.0 0.0 0.00 0.00 0.00 67 1026.9
20260831160557 87 295 0.0 0.0 0.00 0.00 0.00 68 1027.0
20260831160053 85 112 0.0 0.0 0.00 0.00 0.00 68 1026.9
20260831155547 83 285 0.0 0.0 0.00 0.00 0.00 77 1027.0
20260831155043 83 285 0.0 0.0 0.00 0.00 0.00 75 1026.9
20260831154539 83 285 0.0 0.0 0.00 0.00 0.00 74 1026.9
20260831154039 83 285 0.0 0.0 0.00 0.00 0.00 75 1026.9
20260831153538 83 285 0.0 0.0 0.00 0.00 0.00 74 1027.0
20260831153035 83 285 0.0 0.0 0.00 0.00 0.00 75 1027.0
20260831152530 83 286 0.0 0.0 0.00 0.00 0.00 74 1026.9
20260831152026 84 286 0.0 0.0 0.00 0.00 0.00 74 1026.9
20260831151519 84 286 0.0 0.0 0.00 0.00 0.00 74 1027.1
20260831151019 84 285 0.0 0.0 0.00 0.00 0.00 74 1027.0
20260831150515 84 278 0.0 0.0 0.00 0.00 0.00 74 1026.9
20260831150011 84 255 0.0 0.0 0.00 0.00 0.00 74 1026.9
20260831145505 84 201 0.0 0.0 0.00 0.00 0.00 73 1026.6
20260831145000 84 244 0.0 0.0 0.00 0.00 0.00 74 1026.8
20260831144450 84 234 0.0 0.0 0.00 0.00 0.00 74 1026.7
20260831143945 84 229 0.0 0.0 0.00 0.00 0.00 72 1026.8
20260831143440 83 283 0.0 0.0 0.00 0.00 0.00 75 1026.6